STARLINK-3375, 51114

Orbit data source: Space-Track

STARLINK-3375, 51114 is a payload satellite owned by SpaceX/Seattle (US) in LEO that was launched on Wed, 19 Jan 2022 UTC via an FALCON 9 launch vehicle from the Air Force Eastern Test Range (AFETR). Payload-class satellites include a variety of spacecraft equipped with specific instruments for various scientific and technological missions. These include communications satellites like Starlink; space stations such as the ISS; scientific satellites like the Hubble; Earth observation satellites from companies like Planet Labs, Umbra, and HawkEye 360; GPS; miniature CubeSats for education and research; and military/defense satellites.

Loading next visibility...
Identifier
51114, 2022-005L
Orbit
LEO
Country
Flag of USUS
Related business
Manufacturer
SpaceX/Seattle
Mission
Operational Commercial Communications
Bus & Motor
STARLINK, Unknown motor
Mass
297 kg wet, ~275 kg dry
Launch date (UTC)
2022-01-19 (4 years ago)
Launch vehicle
FALCON 9
Launch site
Air Force Eastern Test Range (AFETR)
Object type
Payload
Rocket body
Debris
Shape & HBR
Box + 1 Pan, 10.1 m
Radar Cross Section
13.562 m², Large (>1 m²)

Expand to show TLE details & history
Last TLE update: 12 hours ago

TLE from 12 hours ago
0 STARLINK-3375
1 51114U 22005L   26094.20883382  .00000491  00000-0  48940-4 0  9999
2 51114  53.2180 174.5561 0001160  86.2536 273.8589 15.08844244232739
Epoch: 2026-04-04T05:00Z
TLE epoch observation values (Epoch: 2026-04-04T05:00:43.242Z)
Latitude
0.00001°
Longitude
-93.15596°
Altitude
540.574 km
Speed
7.593 km/s
True Right ascension
11h 38m 13s
True Declination
0° 00' 00"
Sunlit
Object was in full shadow at epoch
Visualization orbit readout
Latitude
Unknown
Longitude
Unknown
Altitude
Unknown
Speed
Unknown
Apparent Right ascension
Unknown
Apparent Declination
Unknown
Sunlit
N/A
Visualization observer readout
Local Sidereal Time
22:29:40
Azimuth
Unknown
Elevation
Unknown
Doppler factor
Unknown
Orbital elements
Apogee altitude
540.778 km
Perigee altitude
539.173 km
Semi-major axis
6,918.112 km
Eccentricity
0.00012
Inclination
53.218°
RAAN
174.5561°
Arg. of periapsis
86.2536°
True anomaly
273.84564°
Mean anomaly
273.8589°
Eccentric anomaly
273.85227°
Mean motion
3.77191 °/min
Orbital period
95.44 mins
BSTAR
0.00004894
Loading maneuver chart data...
Computing Atmospheric mass density...
Loading historical data...
Loading historical data...
Loading historical data...
Loading historical data...
Loading historical data...
Loading historical data...
Loading historical data...

Documentation

Showing up to 5 results
|